(243947) = 2001 QX89 = 2006 OQ11

Discovered at Palomar on 2001-08-16 by NEAT.

Orbit

Orbit type: Main Belt

Note: WebGL enabled browser required.

epoch2023-09-13.0
epoch JD2460200.5
perihelion date2023-02-02.35148
perihelion JD2459977.85148
argument of perihelion (°)346.03642
ascending node (°)307.21884
inclination (°)17.90142
eccentricity0.2138677
perihelion distance (AU)2.4664752
Tisserand w.r.t. Jupiter3.1
ΔV w.r.t. Earth (km/sec)11.2
semimajor axis (AU)3.1374811
mean anomaly (°)39.48680
mean daily motion (°/day)0.17735040
aphelion distance (AU)3.808
period (years)5.56
P-vector [x]0.40413120
P-vector [y]-0.80695401
P-vector [z]-0.43070082
Q-vector [x]0.88134129
Q-vector [y]0.21751912
Q-vector [z]0.41943172
absolute magnitude15.17
phase slope0.15
uncertainty0
referenceMPEC 2024-A48
observations used422
oppositions14
arc length (days)8145
first opposition used2001
last opposition used2023
residual rms (arc-secs)0.71
perturbers coarse indicatorM-v
perturbers precise indicator003Ek
first observation date used2001-08-16.0
last observation date used2023-12-04.0
computer nameMPCLINUX
Minimum Orbit Intersection Distances (in AU)
for orbit epoch: 2460200.5, reference: E2024-A48
Mercury2.01605
Venus1.73904
Earth1.45355
Mars1.0552
Jupiter1.45544
Saturn5.30297
Uranus14.8081
Neptune26.3907

Observations

436 total observations over interval: 2001 08 16.43771 – 2023 12 04.04391
These data are available for download (format description).

Date (UT) J2000 RA J2000 Dec Magn Location Ref
2001 08 16.43771 00 43 18.99 +26 01 19.7 19.8   644 – Palomar Mountain/NEAT MPS 33629
2001 08 16.44786 00 43 18.79 +26 01 24.5 19.9   644 – Palomar Mountain/NEAT MPS 33629
2001 08 16.45765 00 43 18.65 +26 01 29.4 20.0   644 – Palomar Mountain/NEAT MPS 33629
2001 08 22.33967 00 41 17.62 +26 45 16.1 19.3   644 – Palomar Mountain/NEAT MPS 33629
2001 08 22.35048 00 41 17.31 +26 45 20.4 19.6   644 – Palomar Mountain/NEAT MPS 33629
2001 08 22.36156 00 41 17.01 +26 45 25.1 19.9   644 – Palomar Mountain/NEAT MPS 33629
2001 09 10.28064 00 29 21.11 +28 15 49.1 19.3   704 – Lincoln Laboratory ETS, New Mexico MPS 37786
2001 09 10.29460 00 29 20.43 +28 15 49.9 19.3   704 – Lincoln Laboratory ETS, New Mexico MPS 37786
2001 09 10.30833 00 29 19.94 +28 15 51.7 19.5   704 – Lincoln Laboratory ETS, New Mexico MPS 37786
2001 09 10.32213 00 29 19.05 +28 15 54.2 19.5   704 – Lincoln Laboratory ETS, New Mexico MPS 37786
2001 09 22.21212 00 18 45.47 +28 26 04.5 19.8 R 699 – Lowell Observatory-LONEOS MPS 37786
2001 09 22.23803 00 18 44.01 +28 26 03.2   699 – Lowell Observatory-LONEOS MPS 37786
2001 09 22.26399 00 18 42.49 +28 26 01.4   699 – Lowell Observatory-LONEOS MPS 37786
2001 09 22.28984 00 18 40.99 +28 26 01.3   699 – Lowell Observatory-LONEOS MPS 37786
2001 09 30.44571 00 10 59.87 +28 11 18.6 19.9   644 – Palomar Mountain/NEAT MPS 37786
2001 09 30.46700 00 10 58.66 +28 11 14.6 19.8   644 – Palomar Mountain/NEAT MPS 37786
2001 09 30.48826 00 10 57.45 +28 11 10.9 19.8   644 – Palomar Mountain/NEAT MPS 37786
2001 10 18.16982 23 56 02.96 +26 50 52.8 19.8   704 – Lincoln Laboratory ETS, New Mexico MPS 39245
2001 10 18.18554 23 56 02.11 +26 50 46.7 19.8   704 – Lincoln Laboratory ETS, New Mexico MPS 39245
2001 10 18.20126 23 56 01.49 +26 50 40.0 20.2   704 – Lincoln Laboratory ETS, New Mexico MPS 39245
2004 01 28.27636 08 51 44.82 +16 34 24.0 20.6 V 691 – Steward Observatory, Kitt Peak-Spacewatch MPS 202287
2004 01 28.30421 08 51 43.32 +16 34 24.9 20.8 V 691 – Steward Observatory, Kitt Peak-Spacewatch MPS 202287
2004 01 28.33580 08 51 41.61 +16 34 25.8 20.7 V 691 – Steward Observatory, Kitt Peak-Spacewatch MPS 202287
2006 07 21.28537 21 04 20.59 -16 51 04.2 18.3   704 – Lincoln Laboratory ETS, New Mexico MPS 175196
2006 07 21.29636 21 04 19.93 -16 51 00.5 18.0   704 – Lincoln Laboratory ETS, New Mexico MPS 175196
2006 07 21.30732 21 04 19.30 -16 50 56.5 18.2   704 – Lincoln Laboratory ETS, New Mexico MPS 175196
2006 07 21.31368 21 04 18.91 -16 50 55.6 18.3 V G96 – Mt. Lemmon Survey MPS 175196
2006 07 21.31835 21 04 18.65 -16 50 53.8 18.0   704 – Lincoln Laboratory ETS, New Mexico MPS 175196
2006 07 21.31899 21 04 18.58 -16 50 54.0 18.3 V G96 – Mt. Lemmon Survey MPS 175196
2006 07 21.32439 21 04 18.26 -16 50 52.4 18.2 V G96 – Mt. Lemmon Survey MPS 175196
2006 07 21.32973 21 04 17.94 -16 50 50.8 18.2 V G96 – Mt. Lemmon Survey MPS 175196
2006 07 25.34176 21 00 20.94 -16 30 44.5 17.8 R 644 – Palomar Mountain/NEAT MPS 175196
2006 07 25.36235 21 00 19.65 -16 30 38.3 17.7 R 644 – Palomar Mountain/NEAT MPS 175196
2006 07 25.38261 21 00 18.38 -16 30 32.3 18.1 R 644 – Palomar Mountain/NEAT MPS 175196
2006 07 26.27382 20 59 24.57 -16 26 05.8 18.1   704 – Lincoln Laboratory ETS, New Mexico MPS 175196
2006 07 26.28492 20 59 23.85 -16 26 03.1 18.2   704 – Lincoln Laboratory ETS, New Mexico MPS 175196
2006 07 26.30698 20 59 22.49 -16 25 55.7 18.2   704 – Lincoln Laboratory ETS, New Mexico MPS 175196
2006 08 12.20781 20 42 11.42 -15 02 50.4 18.1 R 644 – Palomar Mountain/NEAT MPS 175680
2006 08 12.22837 20 42 10.19 -15 02 44.4 18.0 R 644 – Palomar Mountain/NEAT MPS 175680
2006 08 12.24886 20 42 08.97 -15 02 38.6 18.0 R 644 – Palomar Mountain/NEAT MPS 175680
2006 08 13.27583 20 41 10.08 -14 57 40.0 17.9 R 644 – Palomar Mountain/NEAT MPS 175680
2006 08 13.29727 20 41 08.81 -14 57 33.8 18.1 R 644 – Palomar Mountain/NEAT MPS 175680
2006 08 13.31812 20 41 07.58 -14 57 27.8 18.0 R 644 – Palomar Mountain/NEAT MPS 175680
2006 08 15.22456 20 39 21.06 -14 48 15.3 18.2 R 644 – Palomar Mountain/NEAT MPS 175943
2006 08 15.24494 20 39 19.90 -14 48 09.5 18.3 R 644 – Palomar Mountain/NEAT MPS 175943
2006 08 15.26528 20 39 18.73 -14 48 03.5 17.9 R 644 – Palomar Mountain/NEAT MPS 175943
2006 08 20.21646 20 34 59.27 -14 24 21.5 18.2 R 644 – Palomar Mountain/NEAT MPS 175943
2006 08 20.23673 20 34 58.22 -14 24 15.8 18.3 R 644 – Palomar Mountain/NEAT MPS 175943
2006 08 20.25825 20 34 57.10 -14 24 09.5 18.4 R 644 – Palomar Mountain/NEAT MPS 175943
2010 02 15.401207 10 12 40.853 -00 34 40.20 20.51 g F51 – Pan-STARRS 1, Haleakala MPS 319231
2010 02 15.410312 10 12 40.385 -00 34 39.88 20.71 g F51 – Pan-STARRS 1, Haleakala MPS 319231
2010 02 20.391217 10 08 25.905 -00 29 35.60 20.15 r F51 – Pan-STARRS 1, Haleakala MPC 71009
2010 02 20.391777 10 08 25.869 -00 29 35.58 20.21 r F51 – Pan-STARRS 1, Haleakala MPS 319231
2010 02 20.399798 10 08 25.437 -00 29 35.30 20.22 r F51 – Pan-STARRS 1, Haleakala MPC 71009
2010 02 20.400357 10 08 25.430 -00 29 34.94 20.27 r F51 – Pan-STARRS 1, Haleakala MPS 319231
2010 03 12.364349 09 52 06.460 +00 07 00.59 20.66 r F51 – Pan-STARRS 1, Haleakala MPS 337264
2010 03 12.372750 09 52 06.074 +00 07 01.62 20.23 r F51 – Pan-STARRS 1, Haleakala MPS 337264
2011 07 04.46246 14 41 59.13 -38 36 20.5 18.7 V E12 – Siding Spring Survey MPS 386541
2011 07 04.47490 14 41 59.28 -38 36 14.7 18.6 V E12 – Siding Spring Survey MPS 386541
2011 07 04.48728 14 41 59.46 -38 36 05.7 19.6 V E12 – Siding Spring Survey MPS 386541
2011 07 04.49973 14 41 59.60 -38 35 58.9 19.5 V E12 – Siding Spring Survey MPS 386541
2011 08 01.45586 15 00 52.38 -35 00 52.5 19.6 V E12 – Siding Spring Survey MPS 388358
2011 08 01.46860 15 00 53.28 -35 00 48.5 19.7 V E12 – Siding Spring Survey MPS 388358
2012 09 11.84837 23 57 22.98 +24 15 32.4 19.7 V D00 – ASC-Kislovodsk Observatory MPS 431786
2012 09 11.85862 23 57 22.42 +24 15 33.1 19.4 V D00 – ASC-Kislovodsk Observatory MPS 431786
2012 09 11.86883 23 57 21.87 +24 15 33.0 19.4 V D00 – ASC-Kislovodsk Observatory MPS 431786
2012 09 11.87907 23 57 21.29 +24 15 33.5 19.5 V D00 – ASC-Kislovodsk Observatory MPS 431786
2012 09 12.82681 23 56 29.39 +24 16 05.7 18.3 R D00 – ASC-Kislovodsk Observatory MPS 431786
2012 09 12.84895 23 56 28.21 +24 16 06.6 18.2 R D00 – ASC-Kislovodsk Observatory MPS 431786
2012 09 12.85917 23 56 27.62 +24 16 07.3 18.3 R D00 – ASC-Kislovodsk Observatory MPS 431786
2012 09 17.26494 23 52 22.24 +24 15 34.1 18.4 R 926 – Tenagra II Observatory, Nogales MPS 433176
2012 09 17.27485 23 52 21.67 +24 15 33.8 18.2 R 926 – Tenagra II Observatory, Nogales MPS 433176
2012 09 17.28483 23 52 21.11 +24 15 33.1 18.3 R 926 – Tenagra II Observatory, Nogales MPS 433176
2012 10 04.35869 23 36 55.44 +23 30 44.1 19.3 V 703 – Catalina Sky Survey MPS 434857
2012 10 04.36545 23 36 55.08 +23 30 41.8 18.9 V 703 – Catalina Sky Survey MPS 434857
2012 10 04.37226 23 36 54.86 +23 30 40.4 18.9 V 703 – Catalina Sky Survey MPS 434857
2012 10 04.37910 23 36 54.39 +23 30 39.1 18.9 V 703 – Catalina Sky Survey MPS 434857
2012 10 12.22001 23 30 58.66 +22 52 50.9 20.0   704 – Lincoln Laboratory ETS, New Mexico MPS 437636
2012 10 12.23493 23 30 58.02 +22 52 45.7 19.8   704 – Lincoln Laboratory ETS, New Mexico MPS 437636
2012 10 12.24842 23 30 57.44 +22 52 41.8 19.9   704 – Lincoln Laboratory ETS, New Mexico MPS 437636
2012 10 12.26239 23 30 56.80 +22 52 36.8 19.8   704 – Lincoln Laboratory ETS, New Mexico MPS 437636
2012 10 15.13891 23 29 04.23 +22 37 02.9 19.2 V 703 – Catalina Sky Survey MPS 437636
2012 10 15.14737 23 29 03.94 +22 37 01.2 19.2 V 703 – Catalina Sky Survey MPS 437636
2012 10 15.15584 23 29 03.62 +22 36 57.8 19.8 V 703 – Catalina Sky Survey MPS 437636
2012 10 15.16428 23 29 03.19 +22 36 55.5 18.9 V 703 – Catalina Sky Survey MPS 437636
2012 10 31.393961 23 22 07.249 +21 03 40.80 19.4 i F51 – Pan-STARRS 1, Haleakala MPS 441401
2012 10 31.406155 23 22 07.074 +21 03 36.71 19.3 i F51 – Pan-STARRS 1, Haleakala MPS 441401
2012 11 16.31177 23 21 46.552 +19 42 56.45 19.9 r F51 – Pan-STARRS 1, Haleakala MPS 444728
2012 11 16.32291 23 21 46.638 +19 42 53.50 19.9 r F51 – Pan-STARRS 1, Haleakala MPS 444728
2014 12 26.46294 09 03 02.707 +18 29 05.61 20.8 w F51 – Pan-STARRS 1, Haleakala MPS 559825
2014 12 26.47591 09 03 02.281 +18 29 05.41 20.9 w F51 – Pan-STARRS 1, Haleakala MPS 559825
2015 01 14.37973 08 49 57.878 +18 29 52.19 20.6 w F51 – Pan-STARRS 1, Haleakala MPS 562183
2015 01 14.39202 08 49 57.266 +18 29 52.54 20.6 w F51 – Pan-STARRS 1, Haleakala MPS 562183
